Voltar ao catálogo

CZ-6A DEB

AtivoPO
NORAD 61837·DEBRIS·🇨🇳 China

Lançado Aug 6, 2024 de Taiyuan Satellite Launch Center

Loading…

Próximas Passagens (próximas 24 horas)

TLE

AtualizadoSource: Space-Track

Época: Sep 14, 2026, 10:18 UTC

1 61837U 24140ADD 26257.42927527  .00002333  00000-0  12101-2 0  9994
2 61837  88.8417 252.4073 0102308 310.8352  48.3996 14.11867619102424

Acompanhe CZ-6A DEB em tempo real com AllMySat

Download on the App Store